When you browse on this site, cookies collect data to enhance your experience and personalize the content and advertising you see.
Visit our Privacy Policy to learn more. By continuing to use the site, you agree to this use of cookies and data.
  • In Hungary
  • List of Countries
  • For 7 days
  • Water Temperature
  • Weather Map
  • News
  • Weather Widgets
  • user-avatar
    Login

    Hourly Weather Carcavelos

    Today, 15 November, Friday

    Time Temperature Precipitation Wind Pressure Humidity
    00:00 +10°C° 0.2 mm 8 mps 758 mmHg 69%
    01:00 +10°C° 0.2 mm 8 mps 757 mmHg 69%
    02:00 +10°C° 0.2 mm 9 mps 757 mmHg 69%
    03:00 +8°C° 0.4 mm 9 mps 757 mmHg 68%
    04:00 +8°C° 0.4 mm 9 mps 757 mmHg 67%
    05:00 +8°C° 0 mm 9 mps 758 mmHg 67%
    06:00 +10°C° 0.1 mm 9 mps 758 mmHg 64%
    07:00 +9°C° 0.1 mm 10 mps 758 mmHg 62%
    08:00 +9°C° 0.1 mm 10 mps 758 mmHg 60%
    09:00 +11°C° 0.1 mm 10 mps 758 mmHg 56%
    10:00 +12°C° 0.1 mm 10 mps 758 mmHg 53%
    11:00 +12°C° 0.1 mm 10 mps 758 mmHg 49%
    12:00 +12°C° 0.1 mm 10 mps 758 mmHg 50%
    13:00 +12°C° 0.1 mm 10 mps 757 mmHg 51%
    14:00 +12°C° 0.1 mm 10 mps 757 mmHg 51%
    15:00 +11°C° 0.1 mm 10 mps 757 mmHg 55%
    16:00 +10°C° 0.1 mm 9 mps 757 mmHg 59%
    17:00 +8°C° 0.1 mm 9 mps 757 mmHg 63%
    18:00 +8°C° 0.1 mm 9 mps 758 mmHg 62%
    19:00 +8°C° 0.1 mm 10 mps 758 mmHg 61%
    20:00 +8°C° 0.1 mm 10 mps 758 mmHg 60%
    21:00 +8°C° 0.1 mm 10 mps 758 mmHg 61%
    22:00 +8°C° 0.1 mm 10 mps 759 mmHg 62%
    23:00 +8°C° 0.1 mm 10 mps 759 mmHg 64%

    Tomorrow, 16 November, Saturday

    Time Temperature Precipitation Wind Pressure Humidity
    00:00 +8°C° 0 mm 10 mps 759 mmHg 65%
    01:00 +8°C° 0 mm 9 mps 759 mmHg 67%
    02:00 +8°C° 0 mm 9 mps 759 mmHg 68%
    03:00 +8°C° 0 mm 9 mps 759 mmHg 69%
    04:00 +7°C° 0 mm 8 mps 760 mmHg 71%
    05:00 +7°C° 0 mm 8 mps 760 mmHg 72%
    06:00 +9°C° 0 mm 8 mps 761 mmHg 69%
    07:00 +10°C° 0 mm 7 mps 762 mmHg 67%
    08:00 +10°C° 0 mm 7 mps 762 mmHg 64%
    09:00 +11°C° 0 mm 6 mps 762 mmHg 60%
    10:00 +13°C° 0 mm 6 mps 763 mmHg 56%
    11:00 +14°C° 0 mm 6 mps 763 mmHg 52%
    12:00 +14°C° 0 mm 6 mps 762 mmHg 53%
    13:00 +14°C° 0 mm 6 mps 762 mmHg 54%
    14:00 +14°C° 0 mm 7 mps 762 mmHg 55%
    15:00 +13°C° 0 mm 6 mps 762 mmHg 58%
    16:00 +11°C° 0 mm 6 mps 763 mmHg 60%
    17:00 +10°C° 0 mm 5 mps 763 mmHg 63%
    18:00 +10°C° 0 mm 5 mps 763 mmHg 65%
    19:00 +11°C° 0 mm 4 mps 763 mmHg 67%
    20:00 +11°C° 0 mm 4 mps 763 mmHg 69%
    21:00 +11°C° 0 mm 4 mps 763 mmHg 71%
    22:00 +11°C° 0 mm 4 mps 763 mmHg 74%
    23:00 +12°C° 0 mm 4 mps 762 mmHg 76%

    Day after tomorrow, 17 November, Sunday

    Time Temperature Precipitation Wind Pressure Humidity
    00:00 +13°C° 0.1 mm 5 mps 762 mmHg 79%
    01:00 +14°C° 0.1 mm 6 mps 761 mmHg 81%
    02:00 +14°C° 0.1 mm 7 mps 761 mmHg 84%
    03:00 +15°C° 0.5 mm 7 mps 761 mmHg 86%
    04:00 +15°C° 0.5 mm 7 mps 760 mmHg 87%
    05:00 +15°C° 0.5 mm 7 mps 760 mmHg 89%
    06:00 +15°C° 0.3 mm 6 mps 760 mmHg 86%
    07:00 +15°C° 0.3 mm 6 mps 760 mmHg 84%
    08:00 +16°C° 0.3 mm 5 mps 761 mmHg 82%
    09:00 +16°C° 0.1 mm 5 mps 761 mmHg 76%
    10:00 +17°C° 0.1 mm 5 mps 760 mmHg 71%
    11:00 +19°C° 0.1 mm 4 mps 760 mmHg 66%
    12:00 +17°C° 0.2 mm 5 mps 760 mmHg 68%
    13:00 +17°C° 0.2 mm 6 mps 760 mmHg 71%
    14:00 +17°C° 0.2 mm 7 mps 759 mmHg 73%
    15:00 +16°C° 0.2 mm 7 mps 759 mmHg 77%
    16:00 +16°C° 0.2 mm 7 mps 759 mmHg 82%
    17:00 +15°C° 0.2 mm 7 mps 759 mmHg 86%
    18:00 +15°C° 0.3 mm 7 mps 759 mmHg 85%
    19:00 +14°C° 0.3 mm 7 mps 760 mmHg 84%
    20:00 +12°C° 0.3 mm 7 mps 760 mmHg 83%
    21:00 +11°C° 0 mm 6 mps 760 mmHg 82%
    22:00 +11°C° 0 mm 6 mps 760 mmHg 80%
    23:00 +10°C° 0 mm 5 mps 760 mmHg 79%

    18 November, Monday

    Time Temperature Precipitation Wind Pressure Humidity
    00:00 +10°C° 0 mm 6 mps 760 mmHg 79%
    01:00 +10°C° 0 mm 6 mps 760 mmHg 80%
    02:00 +10°C° 0 mm 6 mps 760 mmHg 80%
    03:00 +10°C° 0 mm 6 mps 760 mmHg 81%
    04:00 +10°C° 0 mm 6 mps 760 mmHg 82%
    05:00 +10°C° 0 mm 6 mps 761 mmHg 83%
    06:00 +11°C° 0 mm 6 mps 761 mmHg 79%
    07:00 +11°C° 0 mm 6 mps 761 mmHg 74%
    08:00 +13°C° 0 mm 5 mps 762 mmHg 69%
    09:00 +14°C° 0 mm 5 mps 762 mmHg 65%
    10:00 +15°C° 0 mm 5 mps 762 mmHg 60%
    11:00 +16°C° 0 mm 5 mps 762 mmHg 56%
    12:00 +15°C° 0 mm 5 mps 761 mmHg 56%
    13:00 +15°C° 0 mm 5 mps 761 mmHg 56%
    14:00 +15°C° 0 mm 5 mps 760 mmHg 56%
    15:00 +14°C° 0 mm 4 mps 761 mmHg 59%
    16:00 +13°C° 0 mm 4 mps 761 mmHg 63%
    17:00 +12°C° 0 mm 4 mps 761 mmHg 66%
    18:00 +12°C° 0 mm 3 mps 761 mmHg 66%
    19:00 +13°C° 0 mm 2 mps 761 mmHg 67%
    20:00 +12°C° 0 mm 1 mps 761 mmHg 67%
    21:00 +12°C° 0 mm 1 mps 761 mmHg 66%
    22:00 +13°C° 0 mm 1 mps 761 mmHg 66%
    23:00 +13°C° 0 mm 1 mps 761 mmHg 65%

    19 November, Tuesday

    Time Temperature Precipitation Wind Pressure Humidity
    00:00 +13°C° 0 mm 2 mps 761 mmHg 66%
    01:00 +13°C° 0 mm 2 mps 760 mmHg 66%
    02:00 +12°C° 0 mm 3 mps 760 mmHg 67%
    03:00 +12°C° 0.1 mm 4 mps 759 mmHg 68%
    04:00 +13°C° 0.1 mm 4 mps 759 mmHg 70%
    05:00 +13°C° 0.1 mm 5 mps 759 mmHg 71%
    06:00 +13°C° 0.2 mm 6 mps 758 mmHg 74%
    07:00 +13°C° 0.2 mm 6 mps 758 mmHg 76%
    08:00 +14°C° 0.2 mm 6 mps 758 mmHg 78%
    09:00 +14°C° 2 mm 7 mps 758 mmHg 82%
    10:00 +13°C° 2 mm 8 mps 758 mmHg 85%
    11:00 +13°C° 2 mm 8 mps 757 mmHg 88%
    12:00 +15°C° 1.1 mm 7 mps 757 mmHg 86%
    13:00 +15°C° 1.1 mm 6 mps 756 mmHg 83%
    14:00 +16°C° 1.1 mm 5 mps 756 mmHg 80%
    15:00 +15°C° 0.1 mm 4 mps 756 mmHg 82%
    16:00 +14°C° 0.1 mm 4 mps 756 mmHg 84%
    17:00 +13°C° 0.1 mm 4 mps 756 mmHg 86%
    18:00 +13°C° 0 mm 4 mps 755 mmHg 85%
    19:00 +12°C° 0 mm 3 mps 755 mmHg 84%
    20:00 +11°C° 0 mm 3 mps 755 mmHg 82%
    21:00 +11°C° 0 mm 3 mps 755 mmHg 80%
    22:00 +11°C° 0 mm 3 mps 755 mmHg 77%
    23:00 +12°C° 0 mm 2 mps 755 mmHg 75%

    20 November, Wednesday

    Time Temperature Precipitation Wind Pressure Humidity
    00:00 +10°C° 0 mm 2 mps 754 mmHg 75%
    01:00 +10°C° 0 mm 2 mps 754 mmHg 75%
    02:00 +10°C° 0 mm 2 mps 754 mmHg 74%
    03:00 +10°C° 0 mm 3 mps 753 mmHg 75%
    04:00 +10°C° 0 mm 4 mps 753 mmHg 76%
    05:00 +10°C° 0 mm 5 mps 753 mmHg 77%
    06:00 +12°C° 0.6 mm 5 mps 753 mmHg 77%
    07:00 +13°C° 0.6 mm 6 mps 753 mmHg 78%
    08:00 +12°C° 0.6 mm 7 mps 753 mmHg 78%
    09:00 +13°C° 0.7 mm 8 mps 753 mmHg 74%
    10:00 +15°C° 0.7 mm 9 mps 752 mmHg 70%
    11:00 +16°C° 0.7 mm 10 mps 752 mmHg 66%
    12:00 +16°C° 0.4 mm 10 mps 751 mmHg 66%
    13:00 +16°C° 0.4 mm 10 mps 751 mmHg 66%
    14:00 +16°C° 0.4 mm 10 mps 750 mmHg 66%
    15:00 +16°C° 0.5 mm 10 mps 750 mmHg 69%
    16:00 +14°C° 0.5 mm 10 mps 749 mmHg 72%
    17:00 +14°C° 0.5 mm 10 mps 749 mmHg 76%
    18:00 +14°C° 0.5 mm 11 mps 749 mmHg 76%
    19:00 +13°C° 0.5 mm 11 mps 749 mmHg 76%
    20:00 +13°C° 0.5 mm 11 mps 749 mmHg 76%
    21:00 +13°C° 0.7 mm 11 mps 749 mmHg 75%
    22:00 +13°C° 0.7 mm 11 mps 749 mmHg 74%
    23:00 +13°C° 0.7 mm 11 mps 749 mmHg 73%
    Show more